When you browse on this site, cookies collect data to enhance your experience and personalize the content and advertising you see.
Visit our Privacy Policy to learn more. By continuing to use the site, you agree to this use of cookies and data.
  • In France
  • List of Countries
  • For 7 days
  • Water Temperature
  • Weather Map
  • Weather Widgets
  • user-avatar
    Login

    Hourly Weather Minsk

    Today, 16 September, Monday

    Time Temperature Precipitation Wind Pressure Humidity
    00:00 +12°C° 0.1 mm 7 mps 736 mmHg 74%
    01:00 +12°C° 0.1 mm 7 mps 736 mmHg 77%
    02:00 +12°C° 0.1 mm 7 mps 736 mmHg 79%
    03:00 +11°C° 0.1 mm 6 mps 736 mmHg 80%
    04:00 +11°C° 0.1 mm 6 mps 736 mmHg 81%
    05:00 +10°C° 0.1 mm 6 mps 736 mmHg 82%
    06:00 +10°C° 0 mm 6 mps 736 mmHg 79%
    07:00 +11°C° 0 mm 7 mps 735 mmHg 75%
    08:00 +11°C° 0 mm 8 mps 735 mmHg 72%
    09:00 +11°C° 0.1 mm 8 mps 735 mmHg 71%
    10:00 +11°C° 0.1 mm 8 mps 735 mmHg 70%
    11:00 +12°C° 0.1 mm 8 mps 735 mmHg 69%
    12:00 +12°C° 0.1 mm 8 mps 735 mmHg 68%
    13:00 +12°C° 0.1 mm 8 mps 735 mmHg 67%
    14:00 +12°C° 0.1 mm 8 mps 735 mmHg 66%
    15:00 +12°C° 0.1 mm 8 mps 735 mmHg 65%
    16:00 +12°C° 0.1 mm 8 mps 735 mmHg 65%
    17:00 +12°C° 0.1 mm 7 mps 735 mmHg 64%
    18:00 +11°C° 0 mm 7 mps 735 mmHg 66%
    19:00 +10°C° 0 mm 6 mps 735 mmHg 69%
    20:00 +10°C° 0 mm 6 mps 735 mmHg 71%
    21:00 +9°C° 0.1 mm 6 mps 735 mmHg 75%
    22:00 +8°C° 0.1 mm 6 mps 735 mmHg 79%
    23:00 +8°C° 0.1 mm 6 mps 735 mmHg 83%

    Tomorrow, 17 September, Tuesday

    Time Temperature Precipitation Wind Pressure Humidity
    00:00 +7°C° 0 mm 6 mps 735 mmHg 85%
    01:00 +7°C° 0 mm 6 mps 735 mmHg 87%
    02:00 +7°C° 0 mm 6 mps 734 mmHg 88%
    03:00 +5°C° 0 mm 6 mps 734 mmHg 88%
    04:00 +5°C° 0 mm 6 mps 734 mmHg 88%
    05:00 +5°C° 0 mm 6 mps 734 mmHg 88%
    06:00 +7°C° 0 mm 6 mps 734 mmHg 85%
    07:00 +7°C° 0 mm 6 mps 734 mmHg 83%
    08:00 +8°C° 0 mm 7 mps 734 mmHg 80%
    09:00 +9°C° 0.1 mm 7 mps 734 mmHg 75%
    10:00 +10°C° 0.1 mm 7 mps 733 mmHg 70%
    11:00 +11°C° 0.1 mm 7 mps 733 mmHg 65%
    12:00 +12°C° 0.2 mm 7 mps 733 mmHg 62%
    13:00 +12°C° 0.2 mm 7 mps 732 mmHg 59%
    14:00 +14°C° 0.2 mm 7 mps 732 mmHg 55%
    15:00 +12°C° 0.2 mm 7 mps 732 mmHg 60%
    16:00 +11°C° 0.2 mm 6 mps 731 mmHg 64%
    17:00 +10°C° 0.2 mm 5 mps 731 mmHg 69%
    18:00 +10°C° 0.2 mm 5 mps 731 mmHg 74%
    19:00 +10°C° 0.2 mm 4 mps 731 mmHg 79%
    20:00 +9°C° 0.2 mm 3 mps 730 mmHg 85%
    21:00 +7°C° 1 mm 4 mps 730 mmHg 86%
    22:00 +6°C° 1 mm 4 mps 730 mmHg 87%
    23:00 +6°C° 1 mm 4 mps 729 mmHg 88%

    Day after tomorrow, 18 September, Wednesday

    Time Temperature Precipitation Wind Pressure Humidity
    00:00 +5°C° 0.1 mm 5 mps 729 mmHg 89%
    01:00 +5°C° 0.1 mm 5 mps 729 mmHg 90%
    02:00 +5°C° 0.1 mm 5 mps 729 mmHg 91%
    03:00 +3°C° 0 mm 5 mps 729 mmHg 92%
    04:00 +3°C° 0 mm 5 mps 730 mmHg 92%
    05:00 +4°C° 0 mm 4 mps 730 mmHg 93%
    06:00 +4°C° 0 mm 4 mps 730 mmHg 91%
    07:00 +4°C° 0 mm 4 mps 730 mmHg 89%
    08:00 +5°C° 0 mm 4 mps 731 mmHg 87%
    09:00 +5°C° 0 mm 5 mps 731 mmHg 83%
    10:00 +6°C° 0 mm 5 mps 732 mmHg 80%
    11:00 +7°C° 0 mm 5 mps 733 mmHg 76%
    12:00 +8°C° 0 mm 5 mps 733 mmHg 72%
    13:00 +9°C° 0 mm 6 mps 733 mmHg 68%
    14:00 +10°C° 0 mm 6 mps 734 mmHg 65%
    15:00 +10°C° 0.1 mm 5 mps 734 mmHg 66%
    16:00 +10°C° 0.1 mm 5 mps 735 mmHg 68%
    17:00 +11°C° 0.1 mm 4 mps 735 mmHg 70%
    18:00 +10°C° 0 mm 4 mps 736 mmHg 75%
    19:00 +7°C° 0 mm 4 mps 736 mmHg 81%
    20:00 +6°C° 0 mm 4 mps 736 mmHg 86%
    21:00 +6°C° 0 mm 4 mps 737 mmHg 89%
    22:00 +6°C° 0 mm 4 mps 737 mmHg 91%
    23:00 +6°C° 0 mm 4 mps 737 mmHg 93%

    19 September, Thursday

    Time Temperature Precipitation Wind Pressure Humidity
    00:00 +5°C° 0 mm 4 mps 738 mmHg 94%
    01:00 +5°C° 0 mm 4 mps 738 mmHg 95%
    02:00 +5°C° 0 mm 3 mps 738 mmHg 95%
    03:00 +4°C° 0 mm 3 mps 739 mmHg 96%
    04:00 +4°C° 0 mm 3 mps 739 mmHg 96%
    05:00 +3°C° 0 mm 3 mps 739 mmHg 96%
    06:00 +4°C° 0 mm 4 mps 740 mmHg 92%
    07:00 +4°C° 0 mm 4 mps 740 mmHg 88%
    08:00 +5°C° 0 mm 4 mps 740 mmHg 84%
    09:00 +6°C° 0 mm 4 mps 741 mmHg 77%
    10:00 +8°C° 0 mm 5 mps 741 mmHg 70%
    11:00 +9°C° 0 mm 5 mps 742 mmHg 63%
    12:00 +9°C° 0.1 mm 5 mps 742 mmHg 60%
    13:00 +11°C° 0.1 mm 4 mps 742 mmHg 58%
    14:00 +11°C° 0.1 mm 4 mps 742 mmHg 56%
    15:00 +11°C° 0.2 mm 4 mps 742 mmHg 60%
    16:00 +10°C° 0.2 mm 4 mps 742 mmHg 64%
    17:00 +10°C° 0.2 mm 3 mps 742 mmHg 68%
    18:00 +8°C° 0 mm 3 mps 742 mmHg 74%
    19:00 +7°C° 0 mm 3 mps 743 mmHg 80%
    20:00 +4°C° 0 mm 3 mps 743 mmHg 85%
    21:00 +4°C° 0 mm 3 mps 743 mmHg 86%
    22:00 +3°C° 0 mm 3 mps 743 mmHg 87%
    23:00 +3°C° 0 mm 3 mps 744 mmHg 88%

    20 September, Friday

    Time Temperature Precipitation Wind Pressure Humidity
    00:00 +3°C° 0 mm 2 mps 744 mmHg 87%
    01:00 +3°C° 0 mm 2 mps 744 mmHg 87%
    02:00 +2°C° 0 mm 2 mps 744 mmHg 87%
    03:00 +3°C° 0 mm 2 mps 744 mmHg 86%
    04:00 +3°C° 0 mm 2 mps 744 mmHg 86%
    05:00 +3°C° 0 mm 2 mps 745 mmHg 85%
    06:00 +2°C° 0 mm 3 mps 745 mmHg 83%
    07:00 +3°C° 0 mm 3 mps 745 mmHg 81%
    08:00 +4°C° 0 mm 3 mps 745 mmHg 78%
    09:00 +5°C° 0.1 mm 3 mps 746 mmHg 75%
    10:00 +7°C° 0.1 mm 3 mps 746 mmHg 72%
    11:00 +8°C° 0.1 mm 3 mps 747 mmHg 69%
    12:00 +8°C° 0.2 mm 3 mps 747 mmHg 67%
    13:00 +9°C° 0.2 mm 3 mps 747 mmHg 65%
    14:00 +8°C° 0.2 mm 4 mps 747 mmHg 63%
    15:00 +9°C° 0.1 mm 3 mps 747 mmHg 64%
    16:00 +9°C° 0.1 mm 3 mps 747 mmHg 66%
    17:00 +8°C° 0.1 mm 3 mps 747 mmHg 67%
    18:00 +7°C° 0 mm 3 mps 748 mmHg 72%
    19:00 +5°C° 0 mm 3 mps 748 mmHg 77%
    20:00 +4°C° 0 mm 2 mps 748 mmHg 81%
    21:00 +4°C° 0 mm 2 mps 749 mmHg 83%
    22:00 +4°C° 0 mm 2 mps 749 mmHg 85%
    23:00 +3°C° 0 mm 2 mps 749 mmHg 88%

    21 September, Saturday

    Time Temperature Precipitation Wind Pressure Humidity
    00:00 +3°C° 0 mm 2 mps 749 mmHg 89%
    01:00 +3°C° 0 mm 2 mps 749 mmHg 90%
    02:00 +3°C° 0 mm 2 mps 749 mmHg 91%
    03:00 +3°C° 0 mm 2 mps 750 mmHg 90%
    04:00 +4°C° 0 mm 2 mps 750 mmHg 89%
    05:00 +4°C° 0 mm 2 mps 750 mmHg 88%
    06:00 +3°C° 0 mm 3 mps 750 mmHg 85%
    07:00 +4°C° 0 mm 3 mps 750 mmHg 82%
    08:00 +5°C° 0 mm 3 mps 750 mmHg 79%
    09:00 +6°C° 0.1 mm 4 mps 750 mmHg 76%
    10:00 +7°C° 0.1 mm 4 mps 750 mmHg 74%
    11:00 +7°C° 0.1 mm 5 mps 750 mmHg 71%
    12:00 +7°C° 0.2 mm 5 mps 750 mmHg 75%
    13:00 +7°C° 0.2 mm 5 mps 749 mmHg 79%
    14:00 +5°C° 0.2 mm 6 mps 749 mmHg 83%
    15:00 +6°C° 0.1 mm 5 mps 749 mmHg 83%
    16:00 +7°C° 0.1 mm 5 mps 749 mmHg 83%
    17:00 +7°C° 0.1 mm 5 mps 748 mmHg 82%
    18:00 +7°C° 0 mm 5 mps 748 mmHg 83%
    19:00 +8°C° 0 mm 5 mps 748 mmHg 84%
    20:00 +8°C° 0 mm 5 mps 748 mmHg 85%
    21:00 +8°C° 0 mm 5 mps 748 mmHg 88%
    22:00 +8°C° 0 mm 5 mps 748 mmHg 91%
    23:00 +8°C° 0 mm 5 mps 748 mmHg 93%
    Show more